Year,Month,Day,Hour,Minute,Value (Times are PST for temperature in C)
2014,09,13,00,00,16.60
2014,09,13,00,01,16.50
2014,09,13,00,02,16.40
2014,09,13,00,03,16.40
2014,09,13,00,04,16.40
2014,09,13,00,05,16.40
2014,09,13,00,06,16.50
2014,09,13,00,07,16.60
2014,09,13,00,08,16.50
2014,09,13,00,09,16.40
2014,09,13,00,10,16.40
2014,09,13,00,11,16.40
2014,09,13,00,12,16.40
2014,09,13,00,13,16.30
2014,09,13,00,14,16.30
2014,09,13,00,15,16.30
2014,09,13,00,16,16.30
2014,09,13,00,17,16.30
2014,09,13,00,18,16.30
2014,09,13,00,19,16.30
2014,09,13,00,20,16.30
2014,09,13,00,21,16.30
2014,09,13,00,22,16.30
2014,09,13,00,23,16.30
2014,09,13,00,24,16.30
2014,09,13,00,25,16.40
2014,09,13,00,26,16.40
2014,09,13,00,27,16.30
2014,09,13,00,28,16.30
2014,09,13,00,29,16.30
2014,09,13,00,30,16.30
2014,09,13,00,31,16.30
2014,09,13,00,32,16.20
2014,09,13,00,33,16.20
2014,09,13,00,34,16.10
2014,09,13,00,35,16.10
2014,09,13,00,36,16.10
2014,09,13,00,37,16.10
2014,09,13,00,38,16.00
2014,09,13,00,39,15.90
2014,09,13,00,40,15.80
2014,09,13,00,41,15.80
2014,09,13,00,42,15.60
2014,09,13,00,43,15.50
2014,09,13,00,44,15.40
2014,09,13,00,45,15.20
2014,09,13,00,46,15.10
2014,09,13,00,47,15.10
2014,09,13,00,48,15.00
2014,09,13,00,49,15.00
2014,09,13,00,50,15.00
2014,09,13,00,51,15.00
2014,09,13,00,52,15.00
2014,09,13,00,53,14.90
2014,09,13,00,54,14.90
2014,09,13,00,55,14.80
2014,09,13,00,56,14.70
2014,09,13,00,57,14.60
2014,09,13,00,58,14.60
2014,09,13,00,59,14.50
2014,09,13,01,00,14.40
2014,09,13,01,01,14.40
2014,09,13,01,02,14.40
2014,09,13,01,03,14.30
2014,09,13,01,04,14.30
2014,09,13,01,05,14.20
2014,09,13,01,06,14.20
2014,09,13,01,07,14.20
2014,09,13,01,08,14.20
2014,09,13,01,09,14.20
2014,09,13,01,10,14.30
2014,09,13,01,11,14.40
2014,09,13,01,12,14.50
2014,09,13,01,13,14.60
2014,09,13,01,14,14.60
2014,09,13,01,15,14.70
2014,09,13,01,16,14.70
2014,09,13,01,17,14.80
2014,09,13,01,18,14.80
2014,09,13,01,19,14.80
2014,09,13,01,20,14.80
2014,09,13,01,21,14.80
2014,09,13,01,22,14.80
2014,09,13,01,23,14.90
2014,09,13,01,24,15.00
2014,09,13,01,25,15.10
2014,09,13,01,26,15.30
2014,09,13,01,27,15.40
2014,09,13,01,28,15.50
2014,09,13,01,29,15.60
2014,09,13,01,30,15.60
2014,09,13,01,31,15.60
2014,09,13,01,32,15.60
2014,09,13,01,33,15.60
2014,09,13,01,34,15.60
2014,09,13,01,35,15.60
2014,09,13,01,36,15.70
2014,09,13,01,37,15.70
2014,09,13,01,38,15.80
2014,09,13,01,39,15.80
2014,09,13,01,40,15.80
2014,09,13,01,41,15.90
2014,09,13,01,42,16.10
2014,09,13,01,43,16.10
2014,09,13,01,44,16.20
2014,09,13,01,45,16.30
2014,09,13,01,46,16.40
2014,09,13,01,47,16.40
2014,09,13,01,48,16.50
2014,09,13,01,49,16.60
2014,09,13,01,50,16.60
2014,09,13,01,51,16.70
2014,09,13,01,52,16.70
2014,09,13,01,53,16.70
2014,09,13,01,54,16.80
2014,09,13,01,55,16.90
2014,09,13,01,56,16.90
2014,09,13,01,57,16.90
2014,09,13,01,58,16.70
2014,09,13,01,59,16.50
2014,09,13,02,00,16.30
2014,09,13,02,01,16.10
2014,09,13,02,02,15.80
2014,09,13,02,03,15.60
2014,09,13,02,04,15.30
2014,09,13,02,05,14.90
2014,09,13,02,06,14.60
2014,09,13,02,07,14.30
2014,09,13,02,08,14.00
2014,09,13,02,09,13.80
2014,09,13,02,10,13.70
2014,09,13,02,11,13.60
2014,09,13,02,12,13.50
2014,09,13,02,13,13.40
2014,09,13,02,14,13.30
2014,09,13,02,15,13.30
2014,09,13,02,16,13.30
2014,09,13,02,17,13.20
2014,09,13,02,18,13.10
2014,09,13,02,19,13.00
2014,09,13,02,20,12.90
2014,09,13,02,21,12.80
2014,09,13,02,22,12.80
2014,09,13,02,23,12.80
2014,09,13,02,24,12.80
2014,09,13,02,25,12.80
2014,09,13,02,26,12.80
2014,09,13,02,27,12.80
2014,09,13,02,28,12.80
2014,09,13,02,29,12.80
2014,09,13,02,30,12.80
2014,09,13,02,31,12.80
2014,09,13,02,32,12.70
2014,09,13,02,33,12.70
2014,09,13,02,34,12.70
2014,09,13,02,35,12.70
2014,09,13,02,36,12.80
2014,09,13,02,37,12.80
2014,09,13,02,38,12.90
2014,09,13,02,39,13.00
2014,09,13,02,40,13.10
2014,09,13,02,41,13.20
2014,09,13,02,42,13.30
2014,09,13,02,43,13.50
2014,09,13,02,44,13.50
2014,09,13,02,45,13.60
2014,09,13,02,46,13.70
2014,09,13,02,47,13.70
2014,09,13,02,48,13.80
2014,09,13,02,49,13.80
2014,09,13,02,50,13.80
2014,09,13,02,51,13.90
2014,09,13,02,52,14.00
2014,09,13,02,53,14.00
2014,09,13,02,54,14.00
2014,09,13,02,55,14.00
2014,09,13,02,56,14.00
2014,09,13,02,57,14.00
2014,09,13,02,58,14.00
2014,09,13,02,59,14.00
2014,09,13,03,00,14.00
2014,09,13,03,01,14.00
2014,09,13,03,02,14.00
2014,09,13,03,03,14.00
2014,09,13,03,04,14.00
2014,09,13,03,05,14.00
2014,09,13,03,06,14.10
2014,09,13,03,07,14.10
2014,09,13,03,08,14.10
2014,09,13,03,09,14.10
2014,09,13,03,10,14.10
2014,09,13,03,11,14.10
2014,09,13,03,12,14.10
2014,09,13,03,13,14.10
2014,09,13,03,14,14.10
2014,09,13,03,15,14.10
2014,09,13,03,16,14.10
2014,09,13,03,17,14.00
2014,09,13,03,18,14.00
2014,09,13,03,19,14.00
2014,09,13,03,20,13.90
2014,09,13,03,21,13.90
2014,09,13,03,22,13.90
2014,09,13,03,23,13.90
2014,09,13,03,24,13.90
2014,09,13,03,25,13.80
2014,09,13,03,26,13.80
2014,09,13,03,27,13.80
2014,09,13,03,28,13.80
2014,09,13,03,29,13.80
2014,09,13,03,30,13.80
2014,09,13,03,31,13.80
2014,09,13,03,32,13.70
2014,09,13,03,33,13.70
2014,09,13,03,34,13.70
2014,09,13,03,35,13.70
2014,09,13,03,36,13.70
2014,09,13,03,37,13.70
2014,09,13,03,38,13.70
2014,09,13,03,39,13.70
2014,09,13,03,40,13.70
2014,09,13,03,41,13.60
2014,09,13,03,42,13.60
2014,09,13,03,43,13.60
2014,09,13,03,44,13.60
2014,09,13,03,45,13.50
2014,09,13,03,46,13.50
2014,09,13,03,47,13.50
2014,09,13,03,48,13.40
2014,09,13,03,49,13.40
2014,09,13,03,50,13.30
2014,09,13,03,51,13.30
2014,09,13,03,52,13.30
2014,09,13,03,53,13.30
2014,09,13,03,54,13.20
2014,09,13,03,55,13.30
2014,09,13,03,56,13.30
2014,09,13,03,57,13.30
2014,09,13,03,58,13.30
2014,09,13,03,59,13.30
2014,09,13,04,00,13.40
2014,09,13,04,01,13.40
2014,09,13,04,02,13.50
2014,09,13,04,03,13.50
2014,09,13,04,04,13.50
2014,09,13,04,05,13.60
2014,09,13,04,06,13.60
2014,09,13,04,07,13.60
2014,09,13,04,08,13.70
2014,09,13,04,09,13.70
2014,09,13,04,10,13.70
2014,09,13,04,11,13.70
2014,09,13,04,12,13.80
2014,09,13,04,13,13.80
2014,09,13,04,14,13.80
2014,09,13,04,15,13.80
2014,09,13,04,16,13.80
2014,09,13,04,17,13.80
2014,09,13,04,18,13.90
2014,09,13,04,19,13.90
2014,09,13,04,20,13.90
2014,09,13,04,21,13.90
2014,09,13,04,22,13.90
2014,09,13,04,23,13.90
2014,09,13,04,24,13.90
2014,09,13,04,25,14.00
2014,09,13,04,26,14.00
2014,09,13,04,27,14.00
2014,09,13,04,28,14.10
2014,09,13,04,29,14.10
2014,09,13,04,30,14.10
2014,09,13,04,31,14.20
2014,09,13,04,32,14.20
2014,09,13,04,33,14.20
2014,09,13,04,34,14.30
2014,09,13,04,35,14.40
2014,09,13,04,36,14.40
2014,09,13,04,37,14.50
2014,09,13,04,38,14.60
2014,09,13,04,39,14.60
2014,09,13,04,40,14.70
2014,09,13,04,41,14.70
2014,09,13,04,42,14.80
2014,09,13,04,43,14.80
2014,09,13,04,44,14.80
2014,09,13,04,45,14.80
2014,09,13,04,46,14.80
2014,09,13,04,47,14.80
2014,09,13,04,48,14.80
2014,09,13,04,49,14.70
2014,09,13,04,50,14.70
2014,09,13,04,51,14.60
2014,09,13,04,52,14.60
2014,09,13,04,53,14.50
2014,09,13,04,54,14.50
2014,09,13,04,55,14.40
2014,09,13,04,56,14.40
2014,09,13,04,57,14.30
2014,09,13,04,58,14.30
2014,09,13,04,59,14.20
2014,09,13,05,00,14.20
2014,09,13,05,01,14.20
2014,09,13,05,02,14.20
2014,09,13,05,03,14.20
2014,09,13,05,04,14.20
2014,09,13,05,05,14.20
2014,09,13,05,06,14.20
2014,09,13,05,07,14.20
2014,09,13,05,08,14.20
2014,09,13,05,09,14.20
2014,09,13,05,10,14.30
2014,09,13,05,11,14.40
2014,09,13,05,12,14.40
2014,09,13,05,13,14.40
2014,09,13,05,14,14.50
2014,09,13,05,15,14.50
2014,09,13,05,16,14.50
2014,09,13,05,17,14.50
2014,09,13,05,18,14.60
2014,09,13,05,19,14.60
2014,09,13,05,20,14.70
2014,09,13,05,21,14.70
2014,09,13,05,22,14.70
2014,09,13,05,23,14.80
2014,09,13,05,24,14.80
2014,09,13,05,25,14.80
2014,09,13,05,26,14.70
2014,09,13,05,27,14.70
2014,09,13,05,28,14.70
2014,09,13,05,29,14.70
2014,09,13,05,30,14.70
2014,09,13,05,31,14.60
2014,09,13,05,32,14.60
2014,09,13,05,33,14.60
2014,09,13,05,34,14.60
2014,09,13,05,35,14.60
2014,09,13,05,36,14.60
2014,09,13,05,37,14.60
2014,09,13,05,38,14.60
2014,09,13,05,39,14.60
2014,09,13,05,40,14.50
2014,09,13,05,41,14.50
2014,09,13,05,42,14.50
2014,09,13,05,43,14.40
2014,09,13,05,44,14.40
2014,09,13,05,45,14.40
2014,09,13,05,46,14.40
2014,09,13,05,47,14.40
2014,09,13,05,48,14.50
2014,09,13,05,49,14.50
2014,09,13,05,50,14.50
2014,09,13,05,51,14.50
2014,09,13,05,52,14.40
2014,09,13,05,53,14.40
2014,09,13,05,54,14.40
2014,09,13,05,55,14.40
2014,09,13,05,56,14.30
2014,09,13,05,57,14.30
2014,09,13,05,58,14.30
2014,09,13,05,59,14.30
2014,09,13,06,00,14.20
2014,09,13,06,01,14.20
2014,09,13,06,02,14.20
2014,09,13,06,03,14.20
2014,09,13,06,04,14.20
2014,09,13,06,05,14.10
2014,09,13,06,06,14.10
2014,09,13,06,07,14.10
2014,09,13,06,08,14.10
2014,09,13,06,09,14.20
2014,09,13,06,10,14.20
2014,09,13,06,11,14.20
2014,09,13,06,12,14.10
2014,09,13,06,13,14.10
2014,09,13,06,14,14.10
2014,09,13,06,15,14.00
2014,09,13,06,16,14.00
2014,09,13,06,17,14.00
2014,09,13,06,18,13.90
2014,09,13,06,19,13.90
2014,09,13,06,20,13.80
2014,09,13,06,21,13.80
2014,09,13,06,22,13.70
2014,09,13,06,23,13.70
2014,09,13,06,24,13.70
2014,09,13,06,25,13.70
2014,09,13,06,26,13.70
2014,09,13,06,27,13.60
2014,09,13,06,28,13.60
2014,09,13,06,29,13.60
2014,09,13,06,30,13.60
2014,09,13,06,31,13.50
2014,09,13,06,32,13.50
2014,09,13,06,33,13.50
2014,09,13,06,34,13.50
2014,09,13,06,35,13.50
2014,09,13,06,36,13.50
2014,09,13,06,37,13.50
2014,09,13,06,38,13.50
2014,09,13,06,39,13.40
2014,09,13,06,40,13.40
2014,09,13,06,41,13.40
2014,09,13,06,42,13.40
2014,09,13,06,43,13.50
2014,09,13,06,44,13.50
2014,09,13,06,45,13.50
2014,09,13,06,46,13.50
2014,09,13,06,47,13.60
2014,09,13,06,48,13.70
2014,09,13,06,49,13.80
2014,09,13,06,50,13.90
2014,09,13,06,51,14.10
2014,09,13,06,52,14.20
2014,09,13,06,53,14.40
2014,09,13,06,54,14.50
2014,09,13,06,55,14.60
2014,09,13,06,56,14.60
2014,09,13,06,57,14.70
2014,09,13,06,58,14.80
2014,09,13,06,59,14.80
2014,09,13,07,00,14.90
2014,09,13,07,01,14.90
2014,09,13,07,02,15.00
2014,09,13,07,03,15.00
2014,09,13,07,04,15.10
2014,09,13,07,05,15.10
2014,09,13,07,06,15.10
2014,09,13,07,07,15.10
2014,09,13,07,08,15.10
2014,09,13,07,09,15.20
2014,09,13,07,10,15.20
2014,09,13,07,11,15.20
2014,09,13,07,12,15.20
2014,09,13,07,13,15.20
2014,09,13,07,14,15.20
2014,09,13,07,15,15.20
2014,09,13,07,16,15.20
2014,09,13,07,17,15.20
2014,09,13,07,18,15.20
2014,09,13,07,19,15.30
2014,09,13,07,20,15.30
2014,09,13,07,21,15.30
2014,09,13,07,22,15.30
2014,09,13,07,23,15.30
2014,09,13,07,24,15.30
2014,09,13,07,25,15.30
2014,09,13,07,26,15.30
2014,09,13,07,27,15.30
2014,09,13,07,28,15.30
2014,09,13,07,29,15.30
2014,09,13,07,30,15.30
2014,09,13,07,31,15.30
2014,09,13,07,32,15.40
2014,09,13,07,33,15.40
2014,09,13,07,34,15.40
2014,09,13,07,35,15.40
2014,09,13,07,36,15.40
2014,09,13,07,37,15.30
2014,09,13,07,38,15.30
2014,09,13,07,39,15.30
2014,09,13,07,40,15.30
2014,09,13,07,41,15.30
2014,09,13,07,42,15.30
2014,09,13,07,43,15.30
2014,09,13,07,44,15.30
2014,09,13,07,45,15.30
2014,09,13,07,46,15.30
2014,09,13,07,47,15.30
2014,09,13,07,48,15.30
2014,09,13,07,49,15.30
2014,09,13,07,50,15.30
2014,09,13,07,51,15.30
2014,09,13,07,52,15.30
2014,09,13,07,53,15.30
2014,09,13,07,54,15.30
2014,09,13,07,55,15.30
2014,09,13,07,56,15.30
2014,09,13,07,57,15.30
2014,09,13,07,58,15.20
2014,09,13,07,59,15.20
2014,09,13,08,00,15.20
2014,09,13,08,01,15.20
2014,09,13,08,02,15.20
2014,09,13,08,03,15.20
2014,09,13,08,04,15.20
2014,09,13,08,05,15.20
2014,09,13,08,06,15.20
2014,09,13,08,07,15.20
2014,09,13,08,08,15.20
2014,09,13,08,09,15.20
2014,09,13,08,10,15.20
2014,09,13,08,11,15.20
2014,09,13,08,12,15.20
2014,09,13,08,13,15.20
2014,09,13,08,14,15.20
2014,09,13,08,15,15.30
2014,09,13,08,16,15.30
2014,09,13,08,17,15.30
2014,09,13,08,18,15.30
2014,09,13,08,19,15.30
2014,09,13,08,20,15.30
2014,09,13,08,21,15.30
2014,09,13,08,22,15.40
2014,09,13,08,23,15.40
2014,09,13,08,24,15.50
2014,09,13,08,25,15.50
2014,09,13,08,26,15.50
2014,09,13,08,27,15.50
2014,09,13,08,28,15.50
2014,09,13,08,29,15.50
2014,09,13,08,30,15.60
2014,09,13,08,31,15.60
2014,09,13,08,32,15.60
2014,09,13,08,33,15.60
2014,09,13,08,34,15.70
2014,09,13,08,35,15.70
2014,09,13,08,36,15.80
2014,09,13,08,37,15.80
2014,09,13,08,38,15.80
2014,09,13,08,39,15.80
2014,09,13,08,40,15.90
2014,09,13,08,41,15.90
2014,09,13,08,42,16.00
2014,09,13,08,43,16.10
2014,09,13,08,44,16.10
2014,09,13,08,45,16.10
2014,09,13,08,46,16.10
2014,09,13,08,47,16.20
2014,09,13,08,48,16.20
2014,09,13,08,49,16.20
2014,09,13,08,50,16.20
2014,09,13,08,51,16.20
2014,09,13,08,52,16.20
2014,09,13,08,53,16.20
2014,09,13,08,54,16.20
2014,09,13,08,55,16.10
2014,09,13,08,56,16.10
2014,09,13,08,57,16.10
2014,09,13,08,58,16.10
2014,09,13,08,59,16.10
2014,09,13,09,00,15.90
2014,09,13,09,01,15.90
2014,09,13,09,02,15.90
2014,09,13,09,03,15.90
2014,09,13,09,04,15.90
2014,09,13,09,05,15.90
2014,09,13,09,06,15.90
2014,09,13,09,07,16.00
2014,09,13,09,08,16.10
2014,09,13,09,09,16.10
2014,09,13,09,10,16.10
2014,09,13,09,11,16.20
2014,09,13,09,12,16.30
2014,09,13,09,13,16.30
2014,09,13,09,14,16.40
2014,09,13,09,15,16.40
2014,09,13,09,16,16.50
2014,09,13,09,17,16.60
2014,09,13,09,18,16.60
2014,09,13,09,19,16.60
2014,09,13,09,20,16.60
2014,09,13,09,21,16.70
2014,09,13,09,22,16.70
2014,09,13,09,23,16.70
2014,09,13,09,24,16.80
2014,09,13,09,25,16.80
2014,09,13,09,26,16.90
2014,09,13,09,27,16.90
2014,09,13,09,28,16.90
2014,09,13,09,29,16.90
2014,09,13,09,30,16.90
2014,09,13,09,31,16.90
2014,09,13,09,32,16.90
2014,09,13,09,33,16.90
2014,09,13,09,34,16.90
2014,09,13,09,35,16.90
2014,09,13,09,36,16.90
2014,09,13,09,37,16.90
2014,09,13,09,38,16.90
2014,09,13,09,39,17.00
2014,09,13,09,40,17.00
2014,09,13,09,41,17.00
2014,09,13,09,42,17.00
2014,09,13,09,43,17.00
2014,09,13,09,44,17.00
2014,09,13,09,45,17.00
2014,09,13,09,46,17.00
2014,09,13,09,47,17.00
2014,09,13,09,48,17.00
2014,09,13,09,49,17.10
2014,09,13,09,50,17.10
2014,09,13,09,51,17.10
2014,09,13,09,52,17.20
2014,09,13,09,53,17.20
2014,09,13,09,54,17.20
2014,09,13,09,55,17.20
2014,09,13,09,56,17.20
2014,09,13,09,57,17.20
2014,09,13,09,58,17.20
2014,09,13,09,59,17.20
2014,09,13,10,00,17.20
2014,09,13,10,01,17.20
2014,09,13,10,02,17.20
2014,09,13,10,03,17.20
2014,09,13,10,04,17.20
2014,09,13,10,05,17.20
2014,09,13,10,06,17.20
2014,09,13,10,07,17.20
2014,09,13,10,08,17.20
2014,09,13,10,09,17.30
2014,09,13,10,10,17.30
2014,09,13,10,11,17.30
2014,09,13,10,12,17.30
2014,09,13,10,13,17.30
2014,09,13,10,14,17.30
2014,09,13,10,15,17.30
2014,09,13,10,16,17.30
2014,09,13,10,17,17.30
2014,09,13,10,18,17.30
2014,09,13,10,19,17.30
2014,09,13,10,20,17.30
2014,09,13,10,21,17.30
2014,09,13,10,22,17.30
2014,09,13,10,23,17.30
2014,09,13,10,24,17.30
2014,09,13,10,25,17.30
2014,09,13,10,26,17.30
2014,09,13,10,27,17.30
2014,09,13,10,28,17.30
2014,09,13,10,29,17.30
2014,09,13,10,30,17.30
2014,09,13,10,31,17.30
2014,09,13,10,32,17.30
2014,09,13,10,33,17.40
2014,09,13,10,34,17.40
2014,09,13,10,35,17.50
2014,09,13,10,36,17.50
2014,09,13,10,37,17.60
2014,09,13,10,38,17.70
2014,09,13,10,39,17.70
2014,09,13,10,40,17.80
2014,09,13,10,41,17.80
2014,09,13,10,42,17.90
2014,09,13,10,43,18.00
2014,09,13,10,44,18.10
2014,09,13,10,45,18.10
2014,09,13,10,46,18.20
2014,09,13,10,47,18.20
2014,09,13,10,48,18.20
2014,09,13,10,49,18.30
2014,09,13,10,50,18.30
2014,09,13,10,51,18.40
2014,09,13,10,52,18.40
2014,09,13,10,53,18.40
2014,09,13,10,54,18.40
2014,09,13,10,55,18.40
2014,09,13,10,56,18.40
2014,09,13,10,57,18.50
2014,09,13,10,58,18.50
2014,09,13,10,59,18.50
2014,09,13,11,00,18.50
2014,09,13,11,01,18.60
2014,09,13,11,02,18.60
2014,09,13,11,03,18.60
2014,09,13,11,04,18.70
2014,09,13,11,05,18.70
2014,09,13,11,06,18.80
2014,09,13,11,07,18.80
2014,09,13,11,08,18.80
2014,09,13,11,09,18.80
2014,09,13,11,10,18.80
2014,09,13,11,11,18.80
2014,09,13,11,12,18.80
2014,09,13,11,13,18.80
2014,09,13,11,14,18.80
2014,09,13,11,15,18.80
2014,09,13,11,16,18.80
2014,09,13,11,17,18.80
2014,09,13,11,18,18.90
2014,09,13,11,19,18.90
2014,09,13,11,20,18.90
2014,09,13,11,21,19.10
2014,09,13,11,22,19.10
2014,09,13,11,23,19.10
2014,09,13,11,24,19.10
2014,09,13,11,25,19.10
2014,09,13,11,26,19.00
2014,09,13,11,27,19.00
2014,09,13,11,28,19.10
2014,09,13,11,29,19.10
2014,09,13,11,30,19.10
2014,09,13,11,31,19.10
2014,09,13,11,32,19.10
2014,09,13,11,33,19.10
2014,09,13,11,34,19.10
2014,09,13,11,35,19.10
2014,09,13,11,36,19.10
2014,09,13,11,37,19.20
2014,09,13,11,38,19.30
2014,09,13,11,39,19.30
2014,09,13,11,40,19.30
2014,09,13,11,41,19.40
2014,09,13,11,42,19.40
2014,09,13,11,43,19.50
2014,09,13,11,44,19.50
2014,09,13,11,45,19.60
2014,09,13,11,46,19.60
2014,09,13,11,47,19.60
2014,09,13,11,48,19.60
2014,09,13,11,49,19.60
2014,09,13,11,50,19.60
2014,09,13,11,51,19.60
2014,09,13,11,52,19.60
2014,09,13,11,53,19.60
2014,09,13,11,54,19.60
2014,09,13,11,55,19.60
2014,09,13,11,56,19.60
2014,09,13,11,57,19.60
2014,09,13,11,58,19.60
2014,09,13,11,59,19.70
2014,09,13,12,00,19.70
2014,09,13,12,01,19.70
2014,09,13,12,02,19.80
2014,09,13,12,03,19.80
2014,09,13,12,04,19.70
2014,09,13,12,05,19.70
2014,09,13,12,06,19.60
2014,09,13,12,07,19.60
2014,09,13,12,08,19.70
2014,09,13,12,09,19.70
2014,09,13,12,10,19.70
2014,09,13,12,11,19.70
2014,09,13,12,12,19.70
2014,09,13,12,13,19.70
2014,09,13,12,14,19.60
2014,09,13,12,15,19.60
2014,09,13,12,16,19.60
2014,09,13,12,17,19.60
2014,09,13,12,18,19.60
2014,09,13,12,19,19.60
2014,09,13,12,20,19.60
2014,09,13,12,21,19.60
2014,09,13,12,22,19.60
2014,09,13,12,23,19.70
2014,09,13,12,24,19.70
2014,09,13,12,25,19.70
2014,09,13,12,26,19.70
2014,09,13,12,27,19.80
2014,09,13,12,28,19.80
2014,09,13,12,29,19.80
2014,09,13,12,30,19.80
2014,09,13,12,31,19.90
2014,09,13,12,32,19.90
2014,09,13,12,33,20.00
2014,09,13,12,34,20.10
2014,09,13,12,35,20.20
2014,09,13,12,36,20.20
2014,09,13,12,37,20.20
2014,09,13,12,38,20.20
2014,09,13,12,39,20.20
2014,09,13,12,40,20.20
2014,09,13,12,41,20.20
2014,09,13,12,42,20.20
2014,09,13,12,43,20.10
2014,09,13,12,44,20.10
2014,09,13,12,45,20.00
2014,09,13,12,46,20.10
2014,09,13,12,47,20.10
2014,09,13,12,48,20.10
2014,09,13,12,49,20.20
2014,09,13,12,50,20.20
2014,09,13,12,51,20.20
2014,09,13,12,52,20.20
2014,09,13,12,53,20.30
2014,09,13,12,54,20.30
2014,09,13,12,55,20.40
2014,09,13,12,56,20.50
2014,09,13,12,57,20.50
2014,09,13,12,58,20.50
2014,09,13,12,59,20.50
2014,09,13,13,00,20.50
2014,09,13,13,01,20.50
2014,09,13,13,02,20.50
2014,09,13,13,03,20.50
2014,09,13,13,04,20.40
2014,09,13,13,05,20.40
2014,09,13,13,06,20.50
2014,09,13,13,07,20.50
2014,09,13,13,08,20.50
2014,09,13,13,09,20.50
2014,09,13,13,10,20.50
2014,09,13,13,11,20.50
2014,09,13,13,12,20.60
2014,09,13,13,13,20.60
2014,09,13,13,14,20.60
2014,09,13,13,15,20.70
2014,09,13,13,16,20.70
2014,09,13,13,17,20.80
2014,09,13,13,18,20.80
2014,09,13,13,19,20.80
2014,09,13,13,20,20.90
2014,09,13,13,21,20.80
2014,09,13,13,22,20.80
2014,09,13,13,23,20.80
2014,09,13,13,24,20.80
2014,09,13,13,25,20.80
2014,09,13,13,26,20.90
2014,09,13,13,27,20.90
2014,09,13,13,28,20.90
2014,09,13,13,29,20.90
2014,09,13,13,30,20.90
2014,09,13,13,31,20.90
2014,09,13,13,32,20.90
2014,09,13,13,33,20.90
2014,09,13,13,34,21.00
2014,09,13,13,35,21.00
2014,09,13,13,36,21.10
2014,09,13,13,37,21.20
2014,09,13,13,38,21.20
2014,09,13,13,39,21.20
2014,09,13,13,40,21.20
2014,09,13,13,41,21.20
2014,09,13,13,42,21.30
2014,09,13,13,43,21.30
2014,09,13,13,44,21.30
2014,09,13,13,45,21.30
2014,09,13,13,46,21.30
2014,09,13,13,47,21.30
2014,09,13,13,48,21.30
2014,09,13,13,49,21.30
2014,09,13,13,50,21.30
2014,09,13,13,51,21.30
2014,09,13,13,52,21.30
2014,09,13,13,53,21.30
2014,09,13,13,54,21.30
2014,09,13,13,55,21.30
2014,09,13,13,56,21.30
2014,09,13,13,57,21.30
2014,09,13,13,58,21.30
2014,09,13,13,59,21.30
2014,09,13,14,00,21.30
2014,09,13,14,01,21.30
2014,09,13,14,02,21.30
2014,09,13,14,03,21.30
2014,09,13,14,04,21.30
2014,09,13,14,05,21.30
2014,09,13,14,06,21.30
2014,09,13,14,07,21.30
2014,09,13,14,08,21.30
2014,09,13,14,09,21.30
2014,09,13,14,10,21.30
2014,09,13,14,11,21.30
2014,09,13,14,12,21.30
2014,09,13,14,13,21.30
2014,09,13,14,14,21.30
2014,09,13,14,15,21.30
2014,09,13,14,16,21.30
2014,09,13,14,17,21.30
2014,09,13,14,18,21.40
2014,09,13,14,19,21.40
2014,09,13,14,20,21.60
2014,09,13,14,21,21.60
2014,09,13,14,22,21.60
2014,09,13,14,23,21.60
2014,09,13,14,24,21.60
2014,09,13,14,25,21.60
2014,09,13,14,26,21.60
2014,09,13,14,27,21.60
2014,09,13,14,28,21.60
2014,09,13,14,29,21.60
2014,09,13,14,30,21.60
2014,09,13,14,31,21.60
2014,09,13,14,32,21.60
2014,09,13,14,33,21.60
2014,09,13,14,34,21.60
2014,09,13,14,35,21.60
2014,09,13,14,36,21.60
2014,09,13,14,37,21.60
2014,09,13,14,38,21.60
2014,09,13,14,39,21.60
2014,09,13,14,40,21.60
2014,09,13,14,41,21.60
2014,09,13,14,42,21.60
2014,09,13,14,43,21.60
2014,09,13,14,44,21.60
2014,09,13,14,45,21.60
2014,09,13,14,46,21.60
2014,09,13,14,47,21.70
2014,09,13,14,48,21.70
2014,09,13,14,49,21.80
2014,09,13,14,50,21.90
2014,09,13,14,51,22.00
2014,09,13,14,52,22.10
2014,09,13,14,53,22.10
2014,09,13,14,54,22.20
2014,09,13,14,55,22.20
2014,09,13,14,56,22.20
2014,09,13,14,57,22.20
2014,09,13,14,58,22.30
2014,09,13,14,59,22.30
2014,09,13,15,00,22.40
2014,09,13,15,01,22.40
2014,09,13,15,02,22.30
2014,09,13,15,03,22.30
2014,09,13,15,04,22.30
2014,09,13,15,05,22.20
2014,09,13,15,06,22.10
2014,09,13,15,07,22.10
2014,09,13,15,08,22.00
2014,09,13,15,09,22.00
2014,09,13,15,10,22.00
2014,09,13,15,11,22.00
2014,09,13,15,12,22.00
2014,09,13,15,13,22.00
2014,09,13,15,14,22.00
2014,09,13,15,15,22.00
2014,09,13,15,16,22.00
2014,09,13,15,17,22.00
2014,09,13,15,18,22.10
2014,09,13,15,19,22.10
2014,09,13,15,20,22.20
2014,09,13,15,21,22.20
2014,09,13,15,22,22.30
2014,09,13,15,23,22.30
2014,09,13,15,24,22.30
2014,09,13,15,25,22.30
2014,09,13,15,26,22.40
2014,09,13,15,27,22.50
2014,09,13,15,28,22.50
2014,09,13,15,29,22.60
2014,09,13,15,30,22.60
2014,09,13,15,31,22.60
2014,09,13,15,32,22.60
2014,09,13,15,33,22.60
2014,09,13,15,34,22.60
2014,09,13,15,35,22.70
2014,09,13,15,36,22.70
2014,09,13,15,37,22.70
2014,09,13,15,38,22.80
2014,09,13,15,39,22.80
2014,09,13,15,40,22.80
2014,09,13,15,41,22.80
2014,09,13,15,42,22.80
2014,09,13,15,43,22.80
2014,09,13,15,44,22.90
2014,09,13,15,45,22.80
2014,09,13,15,46,22.80
2014,09,13,15,47,22.80
2014,09,13,15,48,22.80
2014,09,13,15,49,22.80
2014,09,13,15,50,22.70
2014,09,13,15,51,22.70
2014,09,13,15,52,22.70
2014,09,13,15,53,22.70
2014,09,13,15,54,22.70
2014,09,13,15,55,22.70
2014,09,13,15,56,22.70
2014,09,13,15,57,22.70
2014,09,13,15,58,22.70
2014,09,13,15,59,22.70
2014,09,13,16,00,22.70
2014,09,13,16,01,22.70
2014,09,13,16,02,22.70
2014,09,13,16,03,22.70
2014,09,13,16,04,22.70
2014,09,13,16,05,22.70
2014,09,13,16,06,22.70
2014,09,13,16,07,22.80
2014,09,13,16,08,22.80
2014,09,13,16,09,22.80
2014,09,13,16,10,22.80
2014,09,13,16,11,22.80
2014,09,13,16,12,22.80
2014,09,13,16,13,22.80
2014,09,13,16,14,22.80
2014,09,13,16,15,22.80
2014,09,13,16,16,22.80
2014,09,13,16,17,22.80
2014,09,13,16,18,22.80
2014,09,13,16,19,22.80
2014,09,13,16,20,22.80
2014,09,13,16,21,22.80
2014,09,13,16,22,22.90
2014,09,13,16,23,22.90
2014,09,13,16,24,23.00
2014,09,13,16,25,23.10
2014,09,13,16,26,23.10
2014,09,13,16,27,23.20
2014,09,13,16,28,23.20
2014,09,13,16,29,23.20
2014,09,13,16,30,23.20
2014,09,13,16,31,23.20
2014,09,13,16,32,23.10
2014,09,13,16,33,23.10
2014,09,13,16,34,23.10
2014,09,13,16,35,23.10
2014,09,13,16,36,23.10
2014,09,13,16,37,23.10
2014,09,13,16,38,23.10
2014,09,13,16,39,23.10
2014,09,13,16,40,23.10
2014,09,13,16,41,23.10
2014,09,13,16,42,23.20
2014,09,13,16,43,23.20
2014,09,13,16,44,23.20
2014,09,13,16,45,23.20
2014,09,13,16,46,23.20
2014,09,13,16,47,23.30
2014,09,13,16,48,23.30
2014,09,13,16,49,23.30
2014,09,13,16,50,23.30
2014,09,13,16,51,23.30
2014,09,13,16,52,23.30
2014,09,13,16,53,23.30
2014,09,13,16,54,23.30
2014,09,13,16,55,23.30
2014,09,13,16,56,23.30
2014,09,13,16,57,23.30
2014,09,13,16,58,23.30
2014,09,13,16,59,23.30
2014,09,13,17,00,23.30
2014,09,13,17,01,23.30
2014,09,13,17,02,23.30
2014,09,13,17,03,23.30
2014,09,13,17,04,23.30
2014,09,13,17,05,23.30
2014,09,13,17,06,23.30
2014,09,13,17,07,23.30
2014,09,13,17,08,23.30
2014,09,13,17,09,23.30
2014,09,13,17,10,23.30
2014,09,13,17,11,23.30
2014,09,13,17,12,23.30
2014,09,13,17,13,23.30
2014,09,13,17,14,23.40
2014,09,13,17,15,23.40
2014,09,13,17,16,23.40
2014,09,13,17,17,23.40
2014,09,13,17,18,23.50
2014,09,13,17,19,23.60